Home > Weather > Blackburn > Past weeks

Flag for United Kingdom Weather for the Past 2 Weeks in Blackburn, England, United Kingdom

Now
41 °F

Rain. Partly sunny.


Feels Like: 30 °F
Forecast: 34 / 47 °F
Wind: 28 mph from West

Location: Blackpool Airport

Current Time: Apr 29, 2016 at 9:42:57 AM

Latest Report: Apr 29, 2016 at 8:50 AM


Visibility: 5 mi

Pressure: 29.62 "Hg

Humidity: 81%

Dew Point: 36 °F

Location of BlackburnLocation

Historic Weather in Blackburn — Graph

°F

Blackburn Temperature Yesterday

Maximum temperature yesterday: 46 °F (at 5:20 PM)
Minimum temperature yesterday: 37 °F (at 6:50 AM)
Average temperature yesterday: 43 °F

High & Low Weather Summary for the Past Weeks

 TemperatureHumidityPressure
High66 °F (Apr 21, 4:50 PM)100% (Apr 26, 2:50 PM)30.48 "Hg (Apr 26, 2:50 PM)
Low30 °F (Apr 17, 6:20 AM)37% (Apr 21, 4:50 PM)29.53 "Hg (Apr 15, 5:20 PM)
Average48 °F69%30.01 "Hg
* Reported Apr 14 8:20 AM — Apr 29 8:20 AM, Blackburn, Weather by CustomWeather, © 2016

Note: Actual official high and low records may vary slightly from our data, if they occured in-between our weather recording intervals... More about our weather records

Advertising

Blackburn Weather History for the Previous 24 Hours

Scroll right to see more
 ConditionsComfort  
Time TempWeatherWind HumidityBarometerVisibility
8:20 AM
Fri, Apr 29
43 °FScattered showers. Partly sunny.29 mph76%29.62 "HgN/A
7:20 AM43 °FScattered showers. Partly sunny.24 mph76%29.62 "HgN/A
6:20 AM41 °FPassing clouds.25 mph76%29.59 "HgN/A
8:50 PM
Thu, Apr 28
41 °FScattered clouds.15 mph81%29.65 "HgN/A
8:20 PM41 °FRain showers. Partly sunny.21 mph87%29.65 "Hg6 mi
7:50 PM43 °FScattered showers. Scattered clouds.21 mph76%29.65 "HgN/A
7:20 PM41 °FSprinkles. Scattered clouds.21 mph81%29.65 "HgN/A
6:50 PM45 °FScattered showers. Scattered clouds.22 mph71%29.65 "HgN/A
6:20 PM46 °FScattered showers. Scattered clouds.23 mph66%29.65 "HgN/A
5:50 PM46 °FScattered clouds.25 mph76%29.65 "HgN/A
5:20 PM46 °FScattered clouds.22 mph82%29.68 "HgN/A
4:50 PM45 °FScattered clouds.21 mph81%29.68 "HgN/A
4:20 PM43 °FScattered clouds.21 mph81%29.68 "HgN/A
3:50 PM43 °FScattered clouds.23 mph93%29.68 "HgN/A
3:20 PM43 °FRain. Broken clouds.22 mph93%29.71 "Hg4 mi
2:50 PM43 °FRain. Broken clouds.21 mph93%29.71 "Hg6 mi
2:20 PM43 °FLight rain. Broken clouds.16 mph87%29.74 "Hg6 mi
1:20 PM41 °FLight rain. Partly sunny.21 mph87%29.77 "HgN/A
12:20 PM41 °FRain. Partly sunny.21 mph87%29.80 "HgN/A
11:50 AM43 °FSprinkles. Scattered clouds.20 mph76%29.80 "HgN/A
11:20 AM45 °FSprinkles. Scattered clouds.14 mph71%29.83 "HgN/A
10:50 AM45 °FScattered showers. Scattered clouds.16 mph76%29.83 "HgN/A
10:20 AM45 °FScattered showers. Scattered clouds.18 mph76%29.83 "HgN/A
9:20 AM45 °FScattered clouds.15 mph81%29.86 "HgN/A
Weather by CustomWeather, © 2016

See weather overviewHow to use our weather pages